| time (UTC) | temp C | wind direction | speed KPH | gust KPH | rain 1hr cm | rain 24hr cm | rain mn cm | humidity % | barometer mb |
| 20260904190042 | 27 | 76 | 0.0 | 3.2 | 0.00 | 0.00 | 0.00 | 59 | 1006.7 |
| 20260904184547 | 28 | 111 | 1.6 | 12.9 | 0.00 | 0.00 | 0.00 | 57 | 1006.6 |
| 20260904183042 | 27 | 32 | 1.6 | 9.7 | 0.00 | 0.00 | 0.00 | 55 | 1006.6 |
| 20260904181549 | 28 | 342 | 1.6 | 12.9 | 0.00 | 0.00 | 0.00 | 54 | 1006.7 |
| 20260904180038 | 28 | 32 | 0.0 | 4.8 | 0.00 | 0.00 | 0.00 | 56 | 1006.9 |
| 20260904174559 | 28 | 62 | 0.0 | 8.0 | 0.00 | 0.00 | 0.00 | 58 | 1006.8 |
| 20260904173037 | 28 | 286 | 4.8 | 14.5 | 0.00 | 0.00 | 0.00 | 57 | 1006.9 |
| 20260904171535 | 27 | 248 | 0.0 | 8.0 | 0.00 | 0.00 | 0.00 | 62 | 1007.1 |
| 20260904170031 | 27 | 327 | 0.0 | 4.8 | 0.00 | 0.00 | 0.00 | 65 | 1007.2 |
| 20260904164528 | 27 | 53 | 4.8 | 14.5 | 0.00 | 0.00 | 0.00 | 64 | 1007.3 |
| 20260904163027 | 26 | 249 | 0.0 | 9.7 | 0.00 | 0.00 | 0.00 | 65 | 1007.4 |
| 20260904161525 | 27 | 55 | 1.6 | 9.7 | 0.00 | 0.00 | 0.00 | 69 | 1007.6 |
| 20260904160024 | 26 | 279 | 1.6 | 8.0 | 0.00 | 0.00 | 0.00 | 65 | 1007.7 |
| 20260904154519 | 26 | 30 | 1.6 | 11.3 | 0.00 | 0.00 | 0.00 | 69 | 1007.8 |
| 20260904153023 | 25 | 266 | 1.6 | 6.4 | 0.00 | 0.00 | 0.00 | 71 | 1007.9 |
| 20260904151513 | 25 | 61 | 0.0 | 8.0 | 0.00 | 0.00 | 0.00 | 75 | 1007.9 |
| 20260904150011 | 25 | 65 | 3.2 | 8.0 | 0.00 | 0.00 | 0.00 | 73 | 1008.1 |
| 20260904144505 | 24 | 31 | 1.6 | 4.8 | 0.00 | 0.00 | 0.00 | 81 | 1008.1 |
| 20260904143001 | 23 | 49 | 0.0 | 9.7 | 0.00 | 0.00 | 0.00 | 87 | 1008.2 |
| 20260904141558 | 21 | 281 | 0.0 | 6.4 | 0.00 | 0.00 | 0.00 | 94 | 1008.3 |
| 20260904140054 | 20 | 27 | 0.0 | 1.6 | 0.00 | 0.00 | 0.00 | 95 | 1008.4 |
| 20260904134550 | 20 | 349 | 0.0 | 3.2 | 0.00 | 0.00 | 0.00 | 95 | 1008.6 |
| 20260904133055 | 20 | 66 | 0.0 | 4.8 | 0.00 | 0.00 | 0.00 | 95 | 1008.6 |
| 20260904131545 | 19 | 52 | 1.6 | 3.2 | 0.00 | 0.00 | 0.00 | 95 | 1008.6 |
| 20260904130043 | 19 | 58 | 0.0 | 3.2 | 0.00 | 0.00 | 0.00 | 95 | 1008.7 |
| 20260904124545 | 19 | 55 | 0.0 | 3.2 | 0.00 | 0.08 | 0.00 | 95 | 1008.7 |
| 20260904123103 | 19 | 55 | 0.0 | 1.6 | 0.00 | 0.08 | 0.00 | 95 | 1008.8 |
| 20260904121539 | 19 | 54 | 1.6 | 6.4 | 0.00 | 0.08 | 0.00 | 95 | 1008.7 |
| 20260904120039 | 18 | 111 | 0.0 | 1.6 | 0.00 | 0.08 | 0.00 | 95 | 1008.7 |
| 20260904114537 | 18 | 111 | 0.0 | 3.2 | 0.00 | 0.15 | 0.00 | 95 | 1008.7 |
| 20260904113047 | 18 | 138 | 0.0 | 0.0 | 0.00 | 0.15 | 0.00 | 94 | 1008.6 |
| 20260904111534 | 18 | 138 | 0.0 | 0.0 | 0.00 | 0.15 | 0.00 | 94 | 1008.5 |
| 20260904110038 | 18 | 138 | 0.0 | 0.0 | 0.00 | 0.15 | 0.00 | 94 | 1008.6 |
| 20260904104529 | 18 | 138 | 0.0 | 0.0 | 0.00 | 0.20 | 0.00 | 94 | 1008.5 |
| 20260904103027 | 18 | 138 | 0.0 | 0.0 | 0.00 | 0.20 | 0.00 | 94 | 1008.3 |
| 20260904101527 | 18 | 138 | 0.0 | 0.0 | 0.00 | 0.20 | 0.00 | 94 | 1008.3 |
| 20260904100025 | 18 | 138 | 0.0 | 0.0 | 0.00 | 0.20 | 0.00 | 94 | 1008.2 |
| 20260904094524 | 18 | 138 | 0.0 | 0.0 | 0.00 | 0.25 | 0.00 | 94 | 1008.3 |
| 20260904093025 | 18 | 138 | 0.0 | 0.0 | 0.00 | 0.25 | 0.00 | 94 | 1008.4 |
| 20260904091524 | 18 | 138 | 0.0 | 0.0 | 0.00 | 0.25 | 0.00 | 94 | 1008.1 |
| 20260904090023 | 18 | 138 | 0.0 | 0.0 | 0.00 | 0.25 | 0.00 | 94 | 1008.1 |
| 20260904084523 | 18 | 138 | 0.0 | 0.0 | 0.00 | 0.33 | 0.00 | 94 | 1008.2 |
| 20260904083024 | 18 | 138 | 0.0 | 0.0 | 0.00 | 0.33 | 0.00 | 94 | 1008.2 |
| 20260904081520 | 18 | 138 | 0.0 | 0.0 | 0.00 | 0.33 | 0.00 | 94 | 1008.3 |
| 20260904080018 | 18 | 138 | 0.0 | 0.0 | 0.00 | 0.33 | 0.00 | 94 | 1008.3 |
| 20260904074517 | 18 | 138 | 0.0 | 0.0 | 0.00 | 0.33 | 0.00 | 94 | 1008.5 |
| 20260904073016 | 18 | 138 | 0.0 | 3.2 | 0.00 | 0.33 | 0.00 | 94 | 1008.7 |
| 20260904071515 | 18 | 121 | 0.0 | 4.8 | 0.00 | 0.33 | 0.00 | 94 | 1008.7 |
| 20260904070027 | 18 | 101 | 0.0 | 0.0 | 0.00 | 0.33 | 0.00 | 94 | 1008.9 |
| 20260904064508 | 17 | 101 | 0.0 | 0.0 | 0.00 | 0.33 | 0.00 | 94 | 1008.8 |
| 20260904063012 | 17 | 101 | 0.0 | 0.0 | 0.00 | 0.33 | 0.00 | 94 | 1008.8 |
| 20260904061505 | 17 | 101 | 0.0 | 0.0 | 0.00 | 0.33 | 0.00 | 93 | 1009.0 |
| 20260904060004 | 17 | 101 | 0.0 | 0.0 | 0.00 | 0.33 | 0.00 | 93 | 1009.2 |
| 20260904054502 | 17 | 101 | 0.0 | 0.0 | 0.00 | 0.33 | 0.00 | 93 | 1009.5 |
| 20260904053100 | 17 | 101 | 0.0 | 0.0 | 0.00 | 0.33 | 0.00 | 93 | 1009.5 |
| 20260904051558 | 17 | 101 | 0.0 | 0.0 | 0.00 | 0.33 | 0.00 | 92 | 1009.7 |
| 20260904050056 | 17 | 101 | 0.0 | 0.0 | 0.00 | 0.33 | 0.00 | 92 | 1009.9 |
| 20260904044559 | 17 | 101 | 0.0 | 0.0 | 0.00 | 0.33 | 0.00 | 92 | 1009.9 |
| 20260904043057 | 17 | 101 | 0.0 | 0.0 | 0.00 | 0.33 | 0.00 | 92 | 1010.0 |
| 20260904041555 | 17 | 101 | 0.0 | 0.0 | 0.00 | 0.33 | 0.00 | 92 | 1010.0 |
| 20260904040050 | 17 | 101 | 0.0 | 0.0 | 0.00 | 0.33 | 0.00 | 92 | 1010.0 |
| 20260904034556 | 17 | 101 | 0.0 | 0.0 | 0.00 | 0.33 | 0.33 | 92 | 1010.2 |
| 20260904033050 | 18 | 101 | 0.0 | 0.0 | 0.00 | 0.33 | 0.33 | 91 | 1010.2 |
| 20260904031549 | 18 | 101 | 0.0 | 0.0 | 0.00 | 0.33 | 0.33 | 91 | 1010.2 |
| 20260904030049 | 18 | 101 | 0.0 | 0.0 | 0.00 | 0.33 | 0.33 | 91 | 1010.2 |
| 20260904024547 | 18 | 101 | 0.0 | 0.0 | 0.00 | 0.33 | 0.33 | 91 | 1010.5 |
| 20260904023054 | 18 | 101 | 0.0 | 0.0 | 0.00 | 0.33 | 0.33 | 91 | 1010.7 |
| 20260904021547 | 18 | 101 | 0.0 | 0.0 | 0.00 | 0.33 | 0.33 | 91 | 1010.9 |
| 20260904020048 | 18 | 101 | 0.0 | 0.0 | 0.00 | 0.33 | 0.33 | 90 | 1010.8 |
| 20260904014547 | 18 | 101 | 0.0 | 3.2 | 0.00 | 0.33 | 0.33 | 90 | 1010.8 |
| 20260904013045 | 19 | 69 | 0.0 | 0.0 | 0.00 | 0.33 | 0.33 | 89 | 1011.1 |
| 20260904011600 | 19 | 69 | 0.0 | 0.0 | 0.00 | 0.33 | 0.33 | 89 | 1011.2 |
| 20260904010044 | 19 | 69 | 0.0 | 0.0 | 0.00 | 0.33 | 0.33 | 88 | 1011.0 |
| 20260904004543 | 20 | 69 | 0.0 | 0.0 | 0.00 | 0.33 | 0.33 | 88 | 1010.7 |
| 20260904003043 | 20 | 69 | 0.0 | 0.0 | 0.00 | 0.33 | 0.33 | 88 | 1010.5 |
| 20260904001544 | 20 | 69 | 0.0 | 0.0 | 0.00 | 0.33 | 0.33 | 87 | 1010.5 |
| 20260904000050 | 20 | 69 | 0.0 | 0.0 | 0.00 | 0.33 | 0.33 | 86 | 1010.5 |
| 20260903234545 | 21 | 69 | 0.0 | 0.0 | 0.00 | 0.33 | 0.33 | 85 | 1010.3 |
| 20260903233041 | 21 | 69 | 0.0 | 0.0 | 0.00 | 0.33 | 0.33 | 85 | 1010.3 |
| 20260903231544 | 21 | 69 | 0.0 | 1.6 | 0.00 | 0.33 | 0.33 | 85 | 1010.1 |
| 20260903230045 | 22 | 75 | 0.0 | 4.8 | 0.00 | 0.33 | 0.33 | 85 | 1010.1 |
| 20260903224540 | 22 | 107 | 0.0 | 0.0 | 0.00 | 0.33 | 0.33 | 84 | 1010.4 |
| 20260903223037 | 22 | 107 | 0.0 | 0.0 | 0.00 | 0.33 | 0.33 | 84 | 1010.5 |
| 20260903221536 | 23 | 107 | 0.0 | 0.0 | 0.00 | 0.33 | 0.33 | 83 | 1010.5 |
| 20260903220039 | 23 | 107 | 0.0 | 1.6 | 0.00 | 0.33 | 0.33 | 82 | 1010.7 |
| 20260903214541 | 23 | 107 | 0.0 | 4.8 | 0.00 | 0.33 | 0.33 | 81 | 1010.5 |
| 20260903213041 | 23 | 138 | 0.0 | 1.6 | 0.00 | 0.33 | 0.33 | 81 | 1010.4 |
| 20260903211534 | 22 | 138 | 0.0 | 4.8 | 0.00 | 0.33 | 0.33 | 82 | 1010.4 |
| 20260903210033 | 22 | 84 | 0.0 | 1.6 | 0.00 | 0.33 | 0.33 | 84 | 1010.4 |
| 20260903204531 | 22 | 86 | 0.0 | 3.2 | 0.00 | 0.33 | 0.33 | 83 | 1010.6 |
| 20260903203043 | 22 | 89 | 0.0 | 1.6 | 0.00 | 0.33 | 0.33 | 84 | 1010.7 |
| 20260903201536 | 22 | 89 | 0.0 | 4.8 | 0.00 | 0.33 | 0.33 | 83 | 1010.6 |
| 20260903200029 | 22 | 61 | 0.0 | 6.4 | 0.00 | 0.33 | 0.33 | 84 | 1010.6 |
| 20260903194528 | 21 | 46 | 3.2 | 9.7 | 0.00 | 0.33 | 0.33 | 86 | 1010.8 |
| 20260903193034 | 21 | 72 | 1.6 | 4.8 | 0.00 | 0.33 | 0.33 | 87 | 1011.1 |
| 20260903191524 | 21 | 38 | 0.0 | 4.8 | 0.00 | 0.33 | 0.33 | 86 | 1011.3 |